Weather History for KPDK - May, 2013

Change the Weather History Date:

Sunday, May 12, 2013

  Actual Average Record
Temperature  
Mean Temperature 62 °F 68 °F  
Max Temperature 70 °F 79 °F 91 °F (2011)
Min Temperature 53 °F 58 °F 48 °F (2006)
Degree Days  
Heating Degree Days 4    
Cooling Degree Days 0 4  
Month to date cooling degree days 11 40  
Year to date cooling degree days 46 89  
Growing Degree Days 11 (Base 50)    
Moisture  
Dew Point 45 °F    
Average Humidity 61    
Maximum Humidity 93    
Minimum Humidity 28    
Precipitation  
Precipitation 0.00 in 0.14 in 0.09 in (2004)
Month to date precipitation 4.04 1.64  
Year to date precipitation 8.71 20.08  
Sea Level Pressure  
Sea Level Pressure 30.03 in    
Wind  
Wind Speed 10 mph (NW)    
Max Wind Speed 20 mph    
Max Gust Speed 29 mph    
Visibility 10 miles    
Events      
T = Trace of Precipitation, MM = Missing Value Source: NWS Daily Summary

Daily Weather History Graph

Daily Weather History Graph

Search for Another Location

Airport or City:

Trip Planner

Search our weather history database for the weather conditions in past years. The results will help you decide how hot, cold, wet, or windy it might be!

Date:

Astronomy

May. 12, 2013 Rise Set
Actual Time 6:38 AM EDT 8:29 PM EDT
Civil Twilight 6:10 AM EDT 8:56 PM EDT
Nautical Twilight 5:37 AM EDT 9:30 PM EDT
Astronomical Twilight 5:02 AM EDT 10:05 PM EDT
Moon 8:34 AM EDT (5/12) 10:54 PM EDT (5/12)
Length of Visible Light 14h 46m
Length of Day
13h 51m
Waxing Crescent, 6% of the Moon is Illuminated
May 12
Waxing Crescent
May 18
First Quarter
May 25
Full
May 31
Last Quarter
Jun 8
New

Hourly Weather History & Observations

Time (EDT) Temp. Dew Point Humidity Pressure Visibility Wind Dir Wind Speed Gust Speed Precip Events Conditions
12:53 AM 62.1 °F 60.1 °F 93% 29.94 in 10.0 mi WNW 5.8 mph - N/A   Clear
1:53 AM 61.0 °F 57.0 °F 87% 29.94 in 10.0 mi NW 8.1 mph - N/A   Clear
2:53 AM 59.0 °F 55.0 °F 87% 29.94 in 10.0 mi WNW 8.1 mph - N/A   Clear
3:53 AM 57.0 °F 53.1 °F 87% 29.94 in 10.0 mi NW 9.2 mph - N/A   Clear
4:53 AM 55.9 °F 51.1 °F 84% 29.95 in 10.0 mi WNW 6.9 mph - N/A   Clear
5:53 AM 54.0 °F 50.0 °F 86% 29.97 in 10.0 mi NW 6.9 mph - N/A   Clear
6:53 AM 53.1 °F 48.9 °F 86% 30.00 in 10.0 mi WNW 3.5 mph - N/A   Clear
7:53 AM 55.9 °F 51.1 °F 84% 30.02 in 10.0 mi WNW 8.1 mph - N/A   Clear
8:53 AM 57.9 °F 52.0 °F 81% 30.03 in 10.0 mi NW 9.2 mph - N/A   Clear
9:53 AM 61.0 °F 52.0 °F 72% 30.04 in 10.0 mi WNW 8.1 mph - N/A   Scattered Clouds
10:06 AM 60.8 °F 51.8 °F 72% 30.06 in 10.0 mi NW 8.1 mph - N/A   Mostly Cloudy
10:14 AM 62.6 °F 51.8 °F 68% 30.06 in 10.0 mi WNW 9.2 mph - N/A   Scattered Clouds
10:53 AM 63.0 °F 51.1 °F 65% 30.06 in 10.0 mi NW 9.2 mph - N/A   Clear
11:53 AM 64.9 °F 46.0 °F 50% 30.06 in 10.0 mi WNW 15.0 mph 20.7 mph N/A   Clear
12:53 PM 66.0 °F 44.1 °F 45% 30.06 in 10.0 mi NW 11.5 mph 21.9 mph N/A   Clear
1:53 PM 68.0 °F 43.0 °F 40% 30.04 in 10.0 mi NW 17.3 mph 23.0 mph N/A   Clear
2:53 PM 68.0 °F 37.0 °F 32% 30.03 in 10.0 mi NW 11.5 mph 24.2 mph N/A   Clear
3:53 PM 69.1 °F 35.1 °F 29% 30.02 in 10.0 mi NNW 16.1 mph 21.9 mph N/A   Clear
4:53 PM 69.1 °F 37.0 °F 31% 30.03 in 10.0 mi WNW 11.5 mph 18.4 mph N/A   Clear
5:53 PM 68.0 °F 35.1 °F 30% 30.04 in 10.0 mi NW 12.7 mph 18.4 mph N/A   Clear
6:53 PM 66.0 °F 33.1 °F 29% 30.04 in 10.0 mi WNW 13.8 mph 21.9 mph N/A   Clear
7:53 PM 63.0 °F 32.0 °F 31% 30.06 in 10.0 mi NNW 9.2 mph - N/A   Clear
8:53 PM 60.1 °F 33.1 °F 36% 30.06 in 10.0 mi NNW 6.9 mph - N/A   Clear
9:53 PM 57.9 °F 34.0 °F 41% 30.08 in 10.0 mi NW 4.6 mph - N/A   Clear
10:53 PM 55.9 °F 36.0 °F 47% 30.10 in 10.0 mi WNW 5.8 mph - N/A   Clear
11:53 PM 55.0 °F 36.0 °F 49% 30.10 in 10.0 mi NW 8.1 mph - N/A   Clear